• In Hungary
  • List of Countries
  • For 7 days
  • Water Temperature
  • Satellite Maps
  • Weather Map
  • News
  • Weather Widgets
  • user-avatar
    Login

    Hourly Weather Pitanga

    Today, 13 November, Tuesday

    Time Temperature Precipitation Wind Pressure Humidity
    00:00 +22°C° 0 mm 1 mps 683 mmHg 86%
    01:00 +21°C° 0 mm 2 mps 683 mmHg 87%
    02:00 +21°C° 0 mm 2 mps 683 mmHg 88%
    03:00 +20°C° 0 mm 2 mps 682 mmHg 88%
    04:00 +20°C° 0 mm 2 mps 682 mmHg 89%
    05:00 +20°C° 0 mm 2 mps 683 mmHg 90%
    06:00 +20°C° 0 mm 2 mps 683 mmHg 91%
    07:00 +23°C° 0 mm 2 mps 683 mmHg 82%
    08:00 +25°C° 0 mm 2 mps 684 mmHg 73%
    09:00 +27°C° 0 mm 3 mps 685 mmHg 62%
    10:00 +29°C° 0.1 mm 3 mps 685 mmHg 59%
    11:00 +30°C° 0.1 mm 3 mps 684 mmHg 55%
    12:00 +31°C° 0.1 mm 3 mps 684 mmHg 51%
    13:00 +31°C° 0.6 mm 3 mps 684 mmHg 56%
    14:00 +31°C° 0.6 mm 3 mps 683 mmHg 61%
    15:00 +30°C° 0.6 mm 2 mps 683 mmHg 65%
    16:00 +29°C° 0.8 mm 2 mps 682 mmHg 71%
    17:00 +28°C° 0.8 mm 1 mps 682 mmHg 77%
    18:00 +24°C° 0.8 mm 0 mps 682 mmHg 83%
    19:00 +23°C° 0.2 mm 0 mps 682 mmHg 85%
    20:00 +22°C° 0.2 mm 0 mps 682 mmHg 87%
    21:00 +21°C° 0.2 mm 0 mps 682 mmHg 90%
    22:00 +23°C° 0.1 mm 1 mps 682 mmHg 90%
    23:00 +23°C° 0.1 mm 1 mps 682 mmHg 91%

    Tomorrow, 14 November, Wednesday

    Time Temperature Precipitation Wind Pressure Humidity
    00:00 +23°C° 0.1 mm 1 mps 682 mmHg 91%
    01:00 +22°C° 0 mm 1 mps 681 mmHg 92%
    02:00 +22°C° 0 mm 1 mps 681 mmHg 93%
    03:00 +22°C° 0 mm 1 mps 680 mmHg 94%
    04:00 +22°C° 0 mm 1 mps 681 mmHg 94%
    05:00 +22°C° 0 mm 1 mps 681 mmHg 94%
    06:00 +21°C° 0 mm 1 mps 681 mmHg 93%
    07:00 +23°C° 0.2 mm 1 mps 682 mmHg 88%
    08:00 +25°C° 0.2 mm 2 mps 682 mmHg 82%
    09:00 +27°C° 0.2 mm 3 mps 683 mmHg 76%
    10:00 +27°C° 0.9 mm 3 mps 683 mmHg 76%
    11:00 +27°C° 0.9 mm 3 mps 683 mmHg 76%
    12:00 +27°C° 0.9 mm 2 mps 683 mmHg 76%
    13:00 +27°C° 0.7 mm 2 mps 683 mmHg 76%
    14:00 +27°C° 0.7 mm 2 mps 682 mmHg 76%
    15:00 +28°C° 0.7 mm 2 mps 682 mmHg 76%
    16:00 +26°C° 0.9 mm 1 mps 682 mmHg 82%
    17:00 +25°C° 0.9 mm 1 mps 681 mmHg 88%
    18:00 +24°C° 0.9 mm 1 mps 681 mmHg 94%
    19:00 +23°C° 0.1 mm 1 mps 681 mmHg 95%
    20:00 +20°C° 0.1 mm 0 mps 681 mmHg 95%
    21:00 +20°C° 0.1 mm 0 mps 682 mmHg 95%
    22:00 +20°C° 0 mm 0 mps 682 mmHg 96%
    23:00 +19°C° 0 mm 0 mps 682 mmHg 96%

    Day after tomorrow, 15 November, Thursday

    Time Temperature Precipitation Wind Pressure Humidity
    00:00 +19°C° 0 mm 0 mps 682 mmHg 96%
    01:00 +19°C° 0 mm 0 mps 681 mmHg 96%
    02:00 +19°C° 0 mm 0 mps 681 mmHg 97%
    03:00 +20°C° 0 mm 1 mps 680 mmHg 97%
    04:00 +20°C° 0 mm 1 mps 681 mmHg 97%
    05:00 +20°C° 0 mm 1 mps 681 mmHg 97%
    06:00 +20°C° 0 mm 1 mps 681 mmHg 97%
    07:00 +22°C° 0.1 mm 1 mps 682 mmHg 90%
    08:00 +25°C° 0.1 mm 1 mps 682 mmHg 82%
    09:00 +27°C° 0.1 mm 1 mps 683 mmHg 74%
    10:00 +27°C° 1.1 mm 1 mps 683 mmHg 74%
    11:00 +28°C° 1.1 mm 1 mps 683 mmHg 73%
    12:00 +27°C° 1.1 mm 0 mps 683 mmHg 72%
    13:00 +29°C° 1.3 mm 1 mps 682 mmHg 71%
    14:00 +29°C° 1.3 mm 1 mps 682 mmHg 70%
    15:00 +29°C° 1.3 mm 1 mps 682 mmHg 69%
    16:00 +27°C° 1.8 mm 1 mps 681 mmHg 76%
    17:00 +26°C° 1.8 mm 1 mps 681 mmHg 82%
    18:00 +23°C° 1.8 mm 0 mps 681 mmHg 89%
    19:00 +24°C° 0.1 mm 1 mps 681 mmHg 91%
    20:00 +23°C° 0.1 mm 1 mps 682 mmHg 93%
    21:00 +22°C° 0.1 mm 1 mps 682 mmHg 95%
    22:00 +21°C° 0 mm 1 mps 682 mmHg 96%
    23:00 +20°C° 0 mm 2 mps 682 mmHg 96%

    16 November, Friday

    Time Temperature Precipitation Wind Pressure Humidity
    00:00 +20°C° 0 mm 2 mps 683 mmHg 96%
    01:00 +20°C° 0 mm 2 mps 682 mmHg 96%
    02:00 +20°C° 0 mm 2 mps 682 mmHg 96%
    03:00 +19°C° 0 mm 2 mps 682 mmHg 96%
    04:00 +19°C° 0 mm 2 mps 682 mmHg 96%
    05:00 +18°C° 0 mm 2 mps 683 mmHg 95%
    06:00 +18°C° 0 mm 2 mps 683 mmHg 95%
    07:00 +20°C° 0 mm 2 mps 684 mmHg 87%
    08:00 +23°C° 0 mm 2 mps 684 mmHg 79%
    09:00 +24°C° 0 mm 2 mps 685 mmHg 71%
    10:00 +26°C° 0.2 mm 2 mps 685 mmHg 68%
    11:00 +28°C° 0.2 mm 2 mps 685 mmHg 64%
    12:00 +29°C° 0.2 mm 1 mps 685 mmHg 61%
    13:00 +30°C° 0.8 mm 1 mps 684 mmHg 62%
    14:00 +30°C° 0.8 mm 1 mps 684 mmHg 64%
    15:00 +30°C° 0.8 mm 1 mps 683 mmHg 66%
    16:00 +28°C° 0.6 mm 1 mps 683 mmHg 72%
    17:00 +27°C° 0.6 mm 1 mps 683 mmHg 79%
    18:00 +25°C° 0.6 mm 1 mps 683 mmHg 86%
    19:00 +24°C° 0.1 mm 1 mps 683 mmHg 88%
    20:00 +23°C° 0.1 mm 1 mps 683 mmHg 90%
    21:00 +22°C° 0.1 mm 1 mps 684 mmHg 93%
    22:00 +21°C° 0 mm 2 mps 684 mmHg 93%
    23:00 +21°C° 0 mm 2 mps 684 mmHg 93%

    17 November, Saturday

    Time Temperature Precipitation Wind Pressure Humidity
    00:00 +20°C° 0 mm 3 mps 684 mmHg 93%
    01:00 +20°C° 0 mm 3 mps 684 mmHg 92%
    02:00 +19°C° 0 mm 3 mps 683 mmHg 91%
    03:00 +18°C° 0 mm 3 mps 683 mmHg 89%
    04:00 +18°C° 0 mm 3 mps 683 mmHg 88%
    05:00 +17°C° 0 mm 3 mps 683 mmHg 87%
    06:00 +17°C° 0 mm 3 mps 683 mmHg 85%
    07:00 +19°C° 0 mm 3 mps 684 mmHg 79%
    08:00 +21°C° 0 mm 3 mps 685 mmHg 72%
    09:00 +24°C° 0 mm 3 mps 685 mmHg 65%
    10:00 +26°C° 0 mm 3 mps 685 mmHg 61%
    11:00 +28°C° 0 mm 3 mps 685 mmHg 57%
    12:00 +30°C° 0 mm 3 mps 685 mmHg 53%
    13:00 +30°C° 0.1 mm 3 mps 684 mmHg 54%
    14:00 +30°C° 0.1 mm 2 mps 683 mmHg 55%
    15:00 +30°C° 0.1 mm 2 mps 682 mmHg 56%
    16:00 +29°C° 0.7 mm 2 mps 682 mmHg 65%
    17:00 +28°C° 0.7 mm 1 mps 682 mmHg 74%
    18:00 +24°C° 0.7 mm 0 mps 682 mmHg 82%
    19:00 +25°C° 0.1 mm 1 mps 682 mmHg 85%
    20:00 +24°C° 0.1 mm 1 mps 682 mmHg 88%
    21:00 +23°C° 0.1 mm 2 mps 681 mmHg 91%
    22:00 +21°C° 0 mm 2 mps 682 mmHg 92%
    23:00 +21°C° 0 mm 2 mps 682 mmHg 93%

    18 November, Sunday

    Time Temperature Precipitation Wind Pressure Humidity
    00:00 +21°C° 0 mm 2 mps 682 mmHg 94%
    01:00 +20°C° 0 mm 2 mps 681 mmHg 94%
    02:00 +20°C° 0 mm 2 mps 681 mmHg 94%
    03:00 +20°C° 0 mm 2 mps 681 mmHg 94%
    04:00 +20°C° 0 mm 2 mps 681 mmHg 94%
    05:00 +20°C° 0 mm 2 mps 680 mmHg 95%
    06:00 +20°C° 0 mm 2 mps 680 mmHg 95%
    07:00 +21°C° 0 mm 2 mps 681 mmHg 91%
    08:00 +23°C° 0 mm 2 mps 681 mmHg 87%
    09:00 +24°C° 0 mm 2 mps 682 mmHg 83%
    10:00 +24°C° 0.5 mm 2 mps 682 mmHg 85%
    11:00 +25°C° 0.5 mm 2 mps 682 mmHg 86%
    12:00 +25°C° 0.5 mm 2 mps 682 mmHg 87%
    13:00 +25°C° 1.8 mm 2 mps 681 mmHg 89%
    14:00 +24°C° 1.8 mm 1 mps 681 mmHg 91%
    15:00 +24°C° 1.8 mm 1 mps 680 mmHg 93%
    16:00 +23°C° 0.7 mm 1 mps 680 mmHg 93%
    17:00 +23°C° 0.7 mm 1 mps 680 mmHg 94%
    18:00 +23°C° 0.7 mm 1 mps 680 mmHg 94%
    19:00 +22°C° 0.4 mm 1 mps 680 mmHg 95%
    20:00 +21°C° 0.4 mm 1 mps 681 mmHg 95%
    21:00 +21°C° 0.4 mm 1 mps 681 mmHg 96%
    22:00 +20°C° 0.3 mm 1 mps 681 mmHg 97%
    23:00 +20°C° 0.3 mm 1 mps 681 mmHg 97%
    Show more